Weather History for Hollywood, FL

Change the Weather History Date:

Friday, July 12, 2013

  Actual Average (KFLL) Record (KFLL)
Temperature  
Mean Temperature 78 °F 84 °F  
Max Temperature 87 °F 90 °F 97 °F (1980)
Min Temperature 73 °F 78 °F 69 °F (1956)
Degree Days  
Heating Degree Days 0 0  
Month to date heating degree days 0  
Since 1 June heating degree days 0  
Since 1 July heating degree days 0  
Cooling Degree Days 14 19  
Month to date cooling degree days 228  
Year to date cooling degree days 2189  
Since 1 June cooling degree days 771  
Growing Degree Days 28 (Base 50)    
Moisture  
Dew Point 73 °F    
Average Humidity 83    
Maximum Humidity 97    
Minimum Humidity 59    
Precipitation  
Precipitation 0.69 in 0.20 in 2.05 in (1960)
Month to date precipitation 2.60  
Year to date precipitation 30.25  
Snow  
Snow 0.00 in - - ()
Month to date snowfall  
Since 1 June snowfall  
Since 1 July snowfall  
Snow Depth -    
Sea Level Pressure  
Sea Level Pressure 29.97 in    
Wind  
Wind Speed 4 mph (SW)    
Max Wind Speed 20 mph    
Max Gust Speed 32 mph    
Visibility 9 miles    
Events Rain , Thunderstorm    
T = Trace of Precipitation, MM = Missing Value Source: NWS Daily Summary

Daily Weather History Graph

Daily Weather History Graph

Search for Another Location

Airport:

Trip Planner

Search our weather history database for the weather conditions in past years. The results will help you decide how hot, cold, wet, or windy it might be!

Date:

Astronomy

Jul. 12, 2013 Rise Set
Actual Time 6:37 AM EDT 8:15 PM EDT
Civil Twilight 6:11 AM EDT 8:41 PM EDT
Nautical Twilight 5:40 AM EDT 9:12 PM EDT
Astronomical Twilight 5:08 AM EDT 9:44 PM EDT
Moon 10:23 AM EDT (7/12) 10:57 PM EDT (7/12)
Length of Visible Light 14h 29m
Length of Day
13h 38m
Waxing Crescent, 17% of the Moon is Illuminated
Jul 12
Waxing Crescent
Jul 15
First Quarter
Jul 22
Full
Jul 29
Last Quarter
Aug 6
New

Hourly Weather History & Observations

Time (EDT) Temp. Heat Index Dew Point Humidity Pressure Visibility Wind Dir Wind Speed Gust Speed Precip Events Conditions
12:21 AM 78.8 °F - 71.6 °F 78% 30.00 in 10.0 mi NW 3.5 mph - N/A   Mostly Cloudy
12:39 AM 78.8 °F - 71.6 °F 78% 29.99 in 10.0 mi NW 3.5 mph - N/A   Scattered Clouds
12:53 AM 78.1 °F - 72.0 °F 81% 29.99 in 10.0 mi Calm Calm - N/A   Partly Cloudy
1:53 AM 78.1 °F - 73.0 °F 84% 29.96 in 10.0 mi Calm Calm - N/A   Clear
2:53 AM 78.1 °F - 73.0 °F 84% 29.96 in 10.0 mi Calm Calm - N/A   Clear
3:12 AM 77.0 °F - 73.4 °F 89% 29.96 in 10.0 mi Calm Calm - N/A Thunderstorm Thunderstorm
3:30 AM 78.8 °F - 73.4 °F 83% 29.96 in 10.0 mi Calm Calm - N/A   Partly Cloudy
3:53 AM 78.1 °F - 73.0 °F 84% 29.95 in 10.0 mi Calm Calm - N/A   Clear
4:53 AM 78.1 °F - 73.9 °F 87% 29.94 in 10.0 mi NNE 3.5 mph - N/A   Clear
5:53 AM 78.1 °F - 73.9 °F 87% 29.95 in 10.0 mi Calm Calm - N/A   Clear
6:53 AM 78.1 °F - 73.9 °F 87% 29.96 in 10.0 mi Calm Calm - N/A   Clear
7:53 AM 80.1 °F 85.1 °F 75.0 °F 85% 29.97 in 10.0 mi Calm Calm - N/A   Partly Cloudy
8:53 AM 82.0 °F 87.9 °F 73.9 °F 76% 29.99 in 10.0 mi SSW 3.5 mph - N/A   Clear
9:53 AM 84.0 °F 91.9 °F 75.0 °F 74% 29.99 in 10.0 mi SSW 10.4 mph - 0.00 in Rain Light Rain
10:37 AM 82.4 °F 88.2 °F 73.4 °F 74% 29.99 in 10.0 mi WNW 8.1 mph - 0.00 in   Mostly Cloudy
10:53 AM 82.0 °F 87.4 °F 73.0 °F 74% 30.00 in 10.0 mi NW 4.6 mph - 0.00 in   Overcast
11:24 AM 78.8 °F - 71.6 °F 78% 30.01 in 10.0 mi NNE 5.8 mph - 0.17 in Rain Heavy Rain
11:33 AM 75.2 °F - 71.6 °F 89% 30.01 in 1.0 mi NNE 10.4 mph - 0.35 in Rain Heavy Rain
11:43 AM 75.2 °F - 71.6 °F 89% 30.01 in 3.0 mi NNE 6.9 mph - 0.35 in Rain Light Rain
11:53 AM 77.0 °F - 73.0 °F 88% 30.01 in 7.0 mi NNE 6.9 mph - 0.35 in Rain , Thunderstorm Thunderstorms and Rain
12:09 PM 77.0 °F - 73.4 °F 89% 29.99 in 10.0 mi NNE 8.1 mph - 0.00 in Rain , Thunderstorm Thunderstorms and Rain
12:53 PM 80.1 °F 83.8 °F 72.0 °F 76% 29.99 in 10.0 mi SE 3.5 mph - 0.00 in   Scattered Clouds
1:53 PM 78.1 °F - 71.1 °F 79% 29.98 in 10.0 mi SW 13.8 mph - N/A Thunderstorm Thunderstorm
2:38 PM 77.0 °F - 71.6 °F 83% 29.96 in 10.0 mi South 3.5 mph - 0.00 in   Mostly Cloudy
2:53 PM 78.1 °F - 71.1 °F 79% 29.96 in 10.0 mi South 3.5 mph - 0.00 in   Mostly Cloudy
3:53 PM 84.0 °F 88.4 °F 70.0 °F 63% 29.95 in 10.0 mi Calm Calm - N/A   Partly Cloudy
4:53 PM 84.9 °F 88.8 °F 69.1 °F 59% 29.94 in 10.0 mi South 19.6 mph 32.2 mph N/A   Mostly Cloudy
5:14 PM 77.0 °F - 69.8 °F 78% 29.95 in 10.0 mi South 11.5 mph 20.7 mph 0.06 in Rain , Thunderstorm Thunderstorms and Rain
5:25 PM 75.2 °F - 68.0 °F 78% 29.96 in 2.0 mi South 18.4 mph 23.0 mph 0.18 in Rain , Thunderstorm Thunderstorms and Rain
5:44 PM 73.4 °F - 71.6 °F 94% 29.94 in 10.0 mi South 6.9 mph - 0.34 in Rain , Thunderstorm Thunderstorms and Rain
5:53 PM 73.9 °F - 72.0 °F 93% 29.94 in 10.0 mi South 3.5 mph - 0.34 in   Mostly Cloudy
6:53 PM 77.0 °F - 72.0 °F 84% 29.95 in 10.0 mi Calm Calm - N/A   Clear
7:53 PM 77.0 °F - 73.0 °F 88% 29.96 in 10.0 mi Calm Calm - N/A   Clear
8:53 PM 75.9 °F - 73.0 °F 91% 29.97 in 10.0 mi Calm Calm - N/A   Partly Cloudy
9:53 PM 77.0 °F - 75.0 °F 94% 29.98 in 10.0 mi West 3.5 mph - N/A   Clear
10:53 PM 75.9 °F - 75.0 °F 97% 29.99 in 10.0 mi Calm Calm - N/A   Clear
11:53 PM 75.9 °F - 75.0 °F 97% 29.99 in 10.0 mi Calm Calm - N/A   Clear